Monument Pass, CO

11:20 AM MST on December 15, 2019 (GMT -0700)
Monument Pass

Weather History for KMNH - November, 2019

Change the Weather History Date:

Saturday, November 16, 2019

  Actual Average Record
Temperature  
Mean Temperature 42 °F -  
Max Temperature 55 °F - 68 °F (2016)
Min Temperature 28 °F - 0 °F (2014)
Degree Days  
Heating Degree Days 24    
Month to date heating degree days 443  
Cooling Degree Days 0    
Month to date cooling degree days 0  
Moisture  
Dew Point 23 °F    
Average Humidity 53    
Maximum Humidity 100    
Minimum Humidity 26    
Precipitation  
Precipitation 0.00 in - 0.09 in (2015)
Snow  
Snow 0.00 in - - ()
Snow Depth 0.00 in    
Sea Level Pressure  
Sea Level Pressure 30.16 in    
Wind  
Wind Speed 7 mph ()    
Max Wind Speed 21 mph    
Max Gust Speed 31 mph    
Visibility 9.5 miles    
Events Snow    
T = Trace of Precipitation, MM = Missing Value Source: Averaged Metar Reports

Daily Weather History Graph

Daily Weather History Graph

Search for Another Location

Airport or City:

Astronomy

Nov. 16, 2019 Rise Set
Actual Time 6:42 AM MST 4:43 PM MST
Civil Twilight 6:14 AM MST 5:12 PM MST
Nautical Twilight 5:41 AM MST 5:44 PM MST
Astronomical Twilight 5:09 AM MST 6:16 PM MST
Moon 8:19 PM MST (11/16) 10:38 AM MST (11/16)
Length of Visible Light 10h 57m
Length of Day
10h 00m
Waning Gibbous, 82% of the Moon is Illuminated
Nov 16
Waning Gibbous
Nov 19
Last Quarter
Nov 26
New
Dec 3
First Quarter
Dec 11
Full

Hourly Weather History & Observations

Time (MST) Temp. Windchill Dew Point Humidity Pressure Visibility Wind Dir Wind Speed Gust Speed Precip Events Conditions
12:10 AM 37.4 °F 31.4 °F 19.4 °F 48% 30.15 in 10.0 mi WSW 8.1 mph - N/A   Clear
12:28 AM 41.0 °F 35.2 °F 19.4 °F 42% 30.14 in 10.0 mi SW 9.2 mph - N/A   Clear
12:52 AM 41.0 °F 35.2 °F 19.4 °F 42% 30.13 in 10.0 mi SW 9.2 mph - N/A   Clear
1:12 AM 41.0 °F 36.4 °F 17.6 °F 39% 30.13 in 10.0 mi SW 6.9 mph - N/A   Clear
1:30 AM 42.8 °F 38.0 °F 17.6 °F 36% 30.13 in 10.0 mi SSW 8.1 mph - N/A   Clear
1:48 AM 39.2 °F 33.6 °F 19.4 °F 45% 30.14 in 10.0 mi SSW 8.1 mph - N/A   Clear
2:12 AM 37.4 °F 32.1 °F 19.4 °F 48% 30.14 in 10.0 mi WSW 6.9 mph - N/A   Clear
2:30 AM 37.4 °F 32.1 °F 19.4 °F 48% 30.13 in 10.0 mi SW 6.9 mph - N/A   Clear
2:54 AM 41.0 °F 35.2 °F 19.4 °F 42% 30.12 in 10.0 mi SW 9.2 mph - N/A   Clear
3:12 AM 42.8 °F 38.0 °F 17.6 °F 36% 30.12 in 10.0 mi SW 8.1 mph - N/A   Clear
3:30 AM 41.0 °F 37.1 °F 19.4 °F 42% 30.11 in 10.0 mi SW 5.8 mph - N/A   Clear
3:54 AM 35.6 °F 32.8 °F 17.6 °F 48% 30.11 in 10.0 mi WSW 3.5 mph - N/A   Clear
4:13 AM 37.4 °F 32.1 °F 19.4 °F 48% 30.11 in 10.0 mi WSW 6.9 mph - N/A   Clear
4:31 AM 37.4 °F 31.4 °F 19.4 °F 48% 30.11 in 10.0 mi WSW 8.1 mph - N/A   Clear
4:52 AM 35.6 °F 31.7 °F 19.4 °F 52% 30.12 in 10.0 mi SW 4.6 mph - N/A   Clear
5:07 AM 37.4 °F - 19.4 °F 48% 30.11 in 10.0 mi North - - N/A   Clear
5:50 AM 41.0 °F 35.2 °F 19.4 °F 42% 30.11 in 10.0 mi SW 9.2 mph - N/A   Clear
6:12 AM 42.8 °F 38.6 °F 17.6 °F 36% 30.11 in 10.0 mi SSW 6.9 mph - N/A   Clear
6:30 AM 41.0 °F 37.1 °F 19.4 °F 42% 30.11 in 10.0 mi SSW 5.8 mph - N/A   Clear
6:48 AM 41.0 °F 38.0 °F 19.4 °F 42% 30.12 in 10.0 mi SW 4.6 mph - N/A   Clear
7:11 AM 37.4 °F 32.8 °F 19.4 °F 48% 30.12 in 10.0 mi SSW 5.8 mph - N/A   Clear
7:53 AM 42.8 °F 41.1 °F 21.2 °F 42% 30.13 in 10.0 mi WSW 3.5 mph - N/A   Clear
8:12 AM 42.8 °F 40.1 °F 21.2 °F 42% 30.13 in 10.0 mi SW 4.6 mph - N/A   Clear
8:30 AM 44.6 °F 40.7 °F 19.4 °F 37% 30.14 in 10.0 mi SSW 6.9 mph - N/A   Clear
8:53 AM 44.6 °F 41.4 °F 19.4 °F 37% 30.14 in 10.0 mi SW 5.8 mph - N/A   Clear
9:13 AM 46.4 °F - 21.2 °F 37% 30.14 in 10.0 mi Calm Calm - N/A   Clear
9:31 AM 46.4 °F - 21.2 °F 37% 30.15 in 10.0 mi Calm Calm - N/A   Clear
9:49 AM 50.0 °F - 23.0 °F 35% 30.14 in 10.0 mi WSW 4.6 mph - N/A   Clear
10:12 AM 51.8 °F - 21.2 °F 30% 30.14 in 10.0 mi West 6.9 mph - N/A   Clear
10:48 AM 51.8 °F - 21.2 °F 30% 30.14 in 10.0 mi WNW 10.4 mph - N/A   Clear
11:13 AM 53.6 °F - 21.2 °F 28% 30.12 in 10.0 mi NNW 4.6 mph - N/A   Clear
11:31 AM 53.6 °F - 19.4 °F 26% 30.11 in 10.0 mi NNE 4.6 mph - N/A   Clear
11:49 AM 53.6 °F - 19.4 °F 26% 30.10 in 10.0 mi ENE 3.5 mph - N/A   Clear
12:13 PM 53.6 °F - 19.4 °F 26% 30.10 in 10.0 mi WNW 3.5 mph - N/A   Scattered Clouds
12:31 PM 53.6 °F - 21.2 °F 28% 30.09 in 10.0 mi North 9.2 mph - N/A   Mostly Cloudy
12:48 PM 53.6 °F - 21.2 °F 28% 30.08 in 10.0 mi NNE 9.2 mph - N/A   Scattered Clouds
1:12 PM 53.6 °F - 21.2 °F 28% 30.07 in 10.0 mi NNE 5.8 mph - N/A   Scattered Clouds
1:29 PM 55.4 °F - 21.2 °F 26% 30.07 in 10.0 mi NNE 4.6 mph - N/A   Clear
1:53 PM 51.8 °F - 21.2 °F 30% 30.06 in 10.0 mi NNE 10.4 mph - N/A   Scattered Clouds
2:12 PM 53.6 °F - 21.2 °F 28% 30.06 in 10.0 mi NNW 8.1 mph - N/A   Scattered Clouds
2:31 PM 53.6 °F - 21.2 °F 28% 30.06 in 10.0 mi North 6.9 mph - N/A   Mostly Cloudy
2:49 PM 53.6 °F - 21.2 °F 28% 30.06 in 10.0 mi North 11.5 mph - N/A   Mostly Cloudy
3:13 PM 51.8 °F - 21.2 °F 30% 30.07 in 10.0 mi North 10.4 mph 16.1 mph N/A   Mostly Cloudy
3:31 PM 51.8 °F - 21.2 °F 30% 30.08 in 10.0 mi North 9.2 mph - N/A   Mostly Cloudy
3:49 PM 51.8 °F - 23.0 °F 33% 30.08 in 10.0 mi North 10.4 mph - N/A   Overcast
4:12 PM 48.2 °F - 23.0 °F 37% 30.09 in 10.0 mi North 10.4 mph - N/A   Overcast
4:30 PM 48.2 °F - 23.0 °F 37% 30.10 in 10.0 mi North 13.8 mph 18.4 mph N/A   Overcast
4:48 PM 46.4 °F 40.4 °F 23.0 °F 40% 30.12 in 10.0 mi North 13.8 mph 20.7 mph N/A   Overcast
5:12 PM 44.6 °F 40.2 °F 26.6 °F 49% 30.14 in 10.0 mi NNE 8.1 mph 16.1 mph N/A   Overcast
5:29 PM 44.6 °F 38.4 °F 26.6 °F 49% 30.16 in 10.0 mi NNE 12.7 mph 18.4 mph N/A   Overcast
5:53 PM 41.0 °F 32.5 °F 28.4 °F 61% 30.19 in 10.0 mi NNE 17.3 mph 31.1 mph N/A   Overcast
6:13 PM 35.6 °F 25.2 °F 32.0 °F 87% 30.21 in 10.0 mi NNE 18.4 mph 28.8 mph N/A   Overcast
6:31 PM 33.8 °F 22.2 °F 32.0 °F 93% 30.23 in 10.0 mi North 20.7 mph 27.6 mph N/A   Light Drizzle
6:49 PM 32.0 °F 20.8 °F 32.0 °F 100% 30.24 in 10.0 mi North 17.3 mph 23.0 mph N/A Snow Light Snow
7:12 PM 32.0 °F 22.5 °F 32.0 °F 100% 30.25 in 4.0 mi North 12.7 mph 20.7 mph N/A Snow Light Snow
7:31 PM 32.0 °F 22.5 °F 32.0 °F 100% 30.26 in 5.0 mi North 12.7 mph 17.3 mph N/A Snow Light Snow
7:49 PM 32.0 °F - 32.0 °F 100% 30.27 in 5.0 mi North - - N/A Snow Light Snow
8:12 PM 32.0 °F - 30.2 °F 93% 30.28 in 3.0 mi North - - N/A Snow Light Snow
8:30 PM 30.2 °F - 30.2 °F 100% 30.29 in 5.0 mi North - - N/A Snow Light Snow
8:53 PM 30.2 °F - 28.4 °F 93% 30.29 in 5.0 mi North - - N/A Snow Light Snow
9:11 PM 30.2 °F - 28.4 °F 93% 30.29 in 7.0 mi North - - N/A Snow Light Snow
9:29 PM 30.2 °F - 28.4 °F 93% 30.29 in 10.0 mi North - - N/A Snow Light Snow
9:53 PM 30.2 °F - 28.4 °F 93% 30.30 in 10.0 mi North - - N/A   Overcast
10:12 PM 30.2 °F - 28.4 °F 93% 30.29 in 10.0 mi North - - N/A   Overcast
10:30 PM 28.4 °F - 28.4 °F 100% 30.29 in 10.0 mi North - - N/A   Overcast
10:48 PM 28.4 °F 24.6 °F 28.4 °F 100% 30.29 in 10.0 mi West 3.5 mph - N/A   Overcast
11:12 PM 28.4 °F - 28.4 °F 100% 30.28 in 10.0 mi Calm Calm - N/A   Overcast
11:30 PM 28.4 °F 24.6 °F 28.4 °F 100% 30.27 in 10.0 mi West 3.5 mph - N/A   Overcast
11:48 PM 28.4 °F - 28.4 °F 100% 30.27 in 10.0 mi Calm Calm - N/A   Overcast